Regional Weather Roundup
Issued by NWS Sioux Falls, SD

Home | Current Version | Previous Version | Text Only | Print | Product List | Glossary On
Versions: 1 2 3 4 5 6 7 8 9 10 11 12 13 14 15 16 17 18 19 20 21 22 23 24 25 26 27 28 29 30 31 32 33 34 35 36 37 38 39 40 41 42 43 44 45 46 47 48 49 50
000
ASUS43 KFSD 021610
RWRFSD

WEATHER ROUNDUP FOR SE SOUTH DAKOTA/SW MINNESOTA/NW IOWA
NATIONAL WEATHER SERVICE SIOUX FALLS SD
1100 AM CDT THU OCT 02 2014

NOTE: "FAIR" INDICATES FEW OR NO CLOUDS BELOW 12,000 FEET WITH NO
SIGNIFICANT WEATHER AND OR OBSTRUCTIONS TO VISIBILITY.


SDZ038>040-050-052>070-021700-
SOUTHEAST SOUTH DAKOTA

CITY           SKY/WX    TMP DP  RH WIND       PRES   REMARKS
CHAMBERLAIN    SUNNY     57  49  74 W8        29.95S
HURON          MOSUNNY   60  50  69 VRB5      29.91S
MADISON        LGT RAIN  52  52 100 NW6       29.90F
MITCHELL       PTSUNNY   57  52  83 NW9       29.92F
SIOUX FALLS    LGT RAIN  55  52  89 N5        29.90R
WINNER         FAIR      59  46  62 NW9       29.96S
YANKTON        CLOUDY    54  52  94 NW12      29.91F
$$

MNZ071-072-080-081-089-090-097-098-021700-
SOUTHWEST MINNESOTA

CITY           SKY/WX    TMP DP  RH WIND       PRES   REMARKS
FAIRMONT       CLOUDY    54  48  82 NW14G21   29.85R
JACKSON        LGT RAIN  54  52  94 N7        29.86F
LUVERNE        RAIN      54  52  94 N3        29.90R
MARSHALL       CLOUDY    54  46  76 N7        29.89F
MONTEVIDEO     LGT RAIN  52  52 100 NW3       29.91R
PIPESTONE      LGT RAIN  54  52  94 N6        29.89S
REDWOOD FALLS  LGT RAIN  53  51  93 NW6       29.88R
TRACY          RAIN      54  51  92 NW6       29.90S
WINDOM         RAIN      54  52  94 NW9       29.88F
WORTHINGTON    CLOUDY    54  52  94 N5        29.89S
$$

IAZ001>003-012>014-020>022-031-032-NEZ013-014-SDZ071-021700-
NORTHWEST IOWA

CITY           SKY/WX    TMP DP  RH WIND       PRES   REMARKS
CHEROKEE       RAIN      55  55 100 N8        29.85R
DENISON        DRIZZLE   57  57 100 N10       29.81S
ESTHERVILLE    RAIN      53  52  96 N18G26    29.81F FOG
LE MARS        CLOUDY    55  54  94 N8        29.87S
ORANGE CITY    RAIN      57  54  88 N8        29.87F
SHELDON        DRIZZLE   54  54 100 N7G13     29.86S
SIOUX CITY     CLOUDY    56  54  93 NW10      29.87R
SPENCER        LGT RAIN  56  53  90 N13       29.84S
STORM LAKE     CLOUDY    55  54  94 N12G18    29.84S
$$

ABBREVIATIONS USED IN REMARKS
   TC - TEMPERATURE IN CELSIUS
  WCI - WIND CHILL INDEX
   HX - HEAT INDEX
  VSB - VISIBILITY




USA.gov is the U.S. government's official web portal to all federal, state and local government web resources and services.